Regional Weather Roundup
Issued by NWS

Home | Current Version | Previous Version | Text Only | Print | Product List | Glossary On
Versions: 1 2 3 4 5 6 7 8 9 10 11 12 13 14 15 16 17 18 19 20 21 22 23 24 25 26 27 28 29 30 31 32 33 34 35 36 37 38 39 40 41 42 43 44 45 46 47 48 49 50
000
ASUS43 KFSD 020710
RWRSD

WEATHER ROUNDUP FOR SOUTH DAKOTA
NATIONAL WEATHER SERVICE SIOUX FALLS SD
200 AM CDT TUE JUN 02 2020

NOTE: "FAIR" INDICATES FEW OR NO CLOUDS BELOW 12,000 FEET WITH NO
SIGNIFICANT WEATHER AND/OR OBSTRUCTIONS TO VISIBILITY.


SDZ001>005-009-010-012>017-020800-
NORTHWEST AND NORTH CENTRAL SOUTH DAKOTA

CITY           SKY/WX    TMP DP  RH WIND       PRES   REMARKS
BUFFALO          N/A     63  48  58 NE13      29.88R
FAITH            N/A     63  53  70 E10       29.86S
MOBRIDGE       PTCLDY    67  53  61 CALM      29.82S
$$

SDZ012>016-024>037-041>051-057-063-072>074-020800-
SOUTHWEST AND SOUTH CENTRAL SOUTH DAKOTA

CITY           SKY/WX    TMP DP  RH WIND       PRES   REMARKS
RAPID CTY ARPT PTCLDY    63  60  90 NE7       29.88S
PIERRE         CLEAR     68  65  90 NE7       29.78F
CUSTER         PTCLDY    57  55  93 NW3       30.03F
ELLSWORTH AFB  PTCLDY    66  61  86 CALM      29.88F
PHILIP         CLEAR     66  61  84 CALM      29.81F
PINE RIDGE     CLEAR     64  55  72 CALM      29.87F
SPEARFISH      FAIR      61  59  94 W7        29.91S
WINNER         FAIR      71  64  78 E6        29.81F
$$

SDZ004>011-016>023-039-040-020800-
NORTHEAST SOUTH DAKOTA

CITY           SKY/WX    TMP DP  RH WIND       PRES   REMARKS
ABERDEEN       CLEAR     69  57  65 N7        29.79S
WATERTOWN      CLEAR     69  65  86 CALM      29.81S
BROOKINGS      CLEAR     69  64  84 CALM      29.81S
SISSETON         N/A     68  56  65 NW5       29.78S
$$

SDZ017-020-022-023-036>040-048>070-020800-
SOUTHEAST SOUTH DAKOTA

CITY           SKY/WX    TMP DP  RH WIND       PRES   REMARKS
SIOUX FALLS    CLEAR     80  62  54 S10       29.81R
HURON          CLEAR     70  66  87 CALM      29.77S
CHAMBERLAIN    PTCLDY    72  72 100 CALM      29.80S
MADISON        FAIR      68  68 100 S7        29.82R
MITCHELL       PTCLDY    73  68  84 S3        29.78S
YANKTON        CLEAR     80  61  52 SW15      29.81S
$$

ABBREVIATIONS USED IN REMARKS
   TC - TEMPERATURE IN CELSIUS
  WCI - WIND CHILL INDEX
   HX - HEAT INDEX
  VSB - VISIBILITY




USA.gov is the U.S. government's official web portal to all federal, state and local government web resources and services.